^^
Your Local Weather - Clay, NY Station Historical Data
 
Daily Summary for February 18, 2019 Units:  English    Metric   Both
« Previous Day
Next Day »
Daily Weekly Monthly Yearly Custom
  Current: High: Low: Average:
Temperature: 18.0 °F 23.2 °F 16.9 °F 20.6 °F
Dew Point: 14.0 °F 19.3 °F 11.7 °F 16.1 °F
Humidity: 84% 88% 71% 83%
Wind Speed: 0.0mph 6.0mph 0.0mph 2.4mph
Wind Gust: 2.0mph 11.0mph - -
WindCalm - - SSW
Pressure: 30.34 in 30.34 in 29.76 in -
Precipitation: 0.00 in      
Historical Graphs
 
 
Tabular Data for February 18, 2019
Time Temperature Dew Point Pressure Wind Wind Speed Wind Gust Humidity Rainfall Rate (Hourly) solar
00:04 23.2 °F 18.8 °F 29.85 in ENE 3.0 mph 7.0 mph 83% 0.00 in 0.00 W/m2
00:08 23.0 °F 18.9 °F 29.85 in ESE 4.0 mph 7.0 mph 84% 0.00 in 0.00 W/m2
00:14 22.8 °F 19.0 °F 29.85 in East 5.0 mph 5.0 mph 85% 0.00 in 0.00 W/m2
00:18 22.7 °F 18.9 °F 29.86 in ENE 3.0 mph 5.0 mph 85% 0.00 in 0.00 W/m2
00:24 22.6 °F 19.0 °F 29.85 in NNE 3.0 mph 7.0 mph 86% 0.00 in 0.00 W/m2
00:28 22.6 °F 19.0 °F 29.85 in ENE 4.0 mph 7.0 mph 86% 0.00 in 0.00 W/m2
00:34 22.6 °F 19.0 °F 29.84 in East 4.0 mph 4.0 mph 86% 0.00 in 0.00 W/m2
00:38 22.5 °F 19.2 °F 29.84 in East 4.0 mph 4.0 mph 87% 0.00 in 0.00 W/m2
00:44 22.5 °F 19.2 °F 29.83 in NE 3.0 mph 3.0 mph 87% 0.00 in 0.00 W/m2
00:48 22.4 °F 19.1 °F 29.83 in East 4.0 mph 4.0 mph 87% 0.00 in 0.00 W/m2
00:54 22.4 °F 19.1 °F 29.84 in ENE 4.0 mph 6.0 mph 87% 0.00 in 0.00 W/m2
00:58 22.3 °F 19.0 °F 29.84 in ENE 4.0 mph 6.0 mph 87% 0.00 in 0.00 W/m2
01:04 22.3 °F 19.0 °F 29.84 in East 4.0 mph 5.0 mph 87% 0.00 in 0.00 W/m2
01:08 22.3 °F 19.0 °F 29.84 in NNE 5.0 mph 10.0 mph 87% 0.00 in 0.00 W/m2
01:14 22.3 °F 19.0 °F 29.84 in ESE 5.0 mph 7.0 mph 87% 0.00 in 0.00 W/m2
01:18 22.2 °F 18.9 °F 29.84 in ESE 5.0 mph 7.0 mph 87% 0.00 in 0.00 W/m2
01:24 22.1 °F 18.8 °F 29.83 in East 4.0 mph 5.0 mph 87% 0.00 in 0.00 W/m2
01:28 22.1 °F 18.8 °F 29.82 in ESE 4.0 mph 5.0 mph 87% 0.00 in 0.00 W/m2
01:34 22.1 °F 18.8 °F 29.82 in ENE 4.0 mph 7.0 mph 87% 0.00 in 0.00 W/m2
01:38 22.1 °F 18.8 °F 29.82 in East 5.0 mph 7.0 mph 87% 0.00 in 0.00 W/m2
01:44 22.0 °F 18.7 °F 29.82 in East 5.0 mph 7.0 mph 87% 0.00 in 0.00 W/m2
01:48 22.0 °F 18.7 °F 29.82 in East 5.0 mph 7.0 mph 87% 0.00 in 0.00 W/m2
01:54 22.0 °F 18.7 °F 29.83 in NE 4.0 mph 5.0 mph 87% 0.00 in 0.00 W/m2
01:58 22.0 °F 18.7 °F 29.83 in East 3.0 mph 5.0 mph 87% 0.00 in 0.00 W/m2
02:04 22.0 °F 19.0 °F 29.83 in ENE 3.0 mph 7.0 mph 88% 0.00 in 0.00 W/m2
02:08 22.0 °F 19.0 °F 29.82 in ENE 3.0 mph 7.0 mph 88% 0.00 in 0.00 W/m2
02:14 22.0 °F 19.0 °F 29.82 in East 3.0 mph 5.0 mph 88% 0.00 in 0.00 W/m2
02:18 22.0 °F 19.0 °F 29.82 in ENE 3.0 mph 5.0 mph 88% 0.00 in 0.00 W/m2
02:24 21.9 °F 18.9 °F 29.81 in NE 3.0 mph 3.0 mph 88% 0.00 in 0.00 W/m2
02:28 21.9 °F 18.9 °F 29.80 in East 3.0 mph 5.0 mph 88% 0.00 in 0.00 W/m2
02:34 21.8 °F 18.8 °F 29.80 in ENE 4.0 mph 9.0 mph 88% 0.00 in 0.00 W/m2
02:38 21.8 °F 18.8 °F 29.80 in ENE 4.0 mph 9.0 mph 88% 0.00 in 0.00 W/m2
02:44 21.8 °F 18.5 °F 29.80 in East 4.0 mph 8.0 mph 87% 0.00 in 0.00 W/m2
02:48 21.8 °F 18.5 °F 29.80 in ENE 4.0 mph 8.0 mph 87% 0.00 in 0.00 W/m2
02:54 21.8 °F 18.8 °F 29.80 in SE 4.0 mph 4.0 mph 88% 0.00 in 0.00 W/m2
02:58 21.8 °F 18.8 °F 29.80 in ENE 3.0 mph 4.0 mph 88% 0.00 in 0.00 W/m2
03:04 21.8 °F 18.8 °F 29.80 in East 3.0 mph 4.0 mph 88% 0.00 in 0.00 W/m2
03:08 21.8 °F 18.8 °F 29.79 in ENE 3.0 mph 4.0 mph 88% 0.00 in 0.00 W/m2
03:14 21.8 °F 18.8 °F 29.79 in ENE 3.0 mph 3.0 mph 88% 0.00 in 0.00 W/m2
03:18 21.8 °F 18.8 °F 29.79 in NE 3.0 mph 4.0 mph 88% 0.00 in 0.00 W/m2
03:24 21.8 °F 18.8 °F 29.79 in East 3.0 mph 4.0 mph 88% 0.00 in 0.00 W/m2
03:28 21.8 °F 18.8 °F 29.79 in East 3.0 mph 8.0 mph 88% 0.00 in 0.00 W/m2
03:34 21.8 °F 18.8 °F 29.78 in ESE 4.0 mph 5.0 mph 88% 0.00 in 0.00 W/m2
03:38 21.7 °F 18.7 °F 29.79 in East 5.0 mph 7.0 mph 88% 0.00 in 0.00 W/m2
03:44 21.8 °F 18.5 °F 29.78 in East 4.0 mph 5.0 mph 87% 0.00 in 0.00 W/m2
03:48 21.7 °F 18.7 °F 29.78 in ENE 3.0 mph 5.0 mph 88% 0.00 in 0.00 W/m2
03:54 21.7 °F 18.7 °F 29.78 in ENE 3.0 mph 3.0 mph 88% 0.00 in 0.00 W/m2
03:58 21.7 °F 18.4 °F 29.78 in ENE 2.0 mph 3.0 mph 87% 0.00 in 0.00 W/m2
04:04 21.7 °F 18.7 °F 29.78 in East 3.0 mph 6.0 mph 88% 0.00 in 0.00 W/m2
04:08 21.6 °F 18.6 °F 29.77 in ENE 4.0 mph 6.0 mph 88% 0.00 in 0.00 W/m2
04:14 21.7 °F 18.7 °F 29.78 in East 3.0 mph 4.0 mph 88% 0.00 in 0.00 W/m2
04:18 21.6 °F 18.6 °F 29.78 in East 3.0 mph 5.0 mph 88% 0.00 in 0.00 W/m2
04:24 21.6 °F 18.6 °F 29.78 in ENE 3.0 mph 5.0 mph 88% 0.00 in 0.00 W/m2
04:28 21.6 °F 18.3 °F 29.78 in East 3.0 mph 5.0 mph 87% 0.00 in 0.00 W/m2
04:34 21.6 °F 18.3 °F 29.78 in East 3.0 mph 7.0 mph 87% 0.00 in 0.00 W/m2
04:38 21.6 °F 18.3 °F 29.78 in ENE 3.0 mph 7.0 mph 87% 0.00 in 0.00 W/m2
04:44 21.7 °F 18.4 °F 29.78 in ENE 3.0 mph 4.0 mph 87% 0.00 in 0.00 W/m2
04:48 21.7 °F 18.4 °F 29.78 in East 3.0 mph 4.0 mph 87% 0.00 in 0.00 W/m2
04:54 21.7 °F 18.4 °F 29.77 in East 3.0 mph 8.0 mph 87% 0.00 in 0.00 W/m2
04:58 21.7 °F 18.4 °F 29.78 in ESE 3.0 mph 8.0 mph 87% 0.00 in 0.00 W/m2
05:04 21.7 °F 18.4 °F 29.77 in NE 2.0 mph 6.0 mph 87% 0.00 in 0.00 W/m2
05:08 21.6 °F 18.3 °F 29.77 in East 3.0 mph 6.0 mph 87% 0.00 in 0.00 W/m2
05:14 21.7 °F 18.4 °F 29.78 in ENE 3.0 mph 4.0 mph 87% 0.00 in 0.00 W/m2
05:18 21.6 °F 18.3 °F 29.78 in ENE 3.0 mph 4.0 mph 87% 0.00 in 0.00 W/m2
05:24 21.7 °F 18.4 °F 29.78 in NE 3.0 mph 7.0 mph 87% 0.00 in 0.00 W/m2
05:28 21.7 °F 18.4 °F 29.78 in ENE 3.0 mph 7.0 mph 87% 0.00 in 0.00 W/m2
05:34 21.8 °F 18.5 °F 29.78 in East 3.0 mph 3.0 mph 87% 0.00 in 0.00 W/m2
05:38 21.7 °F 18.2 °F 29.77 in ENE 2.0 mph 3.0 mph 86% 0.00 in 0.00 W/m2
05:44 21.7 °F 18.2 °F 29.77 in ENE 2.0 mph 3.0 mph 86% 0.00 in 0.00 W/m2
05:48 21.7 °F 18.2 °F 29.77 in East 2.0 mph 4.0 mph 86% 0.00 in 0.00 W/m2
05:54 21.8 °F 18.3 °F 29.77 in NE 2.0 mph 4.0 mph 86% 0.00 in 0.00 W/m2
05:58 21.7 °F 18.2 °F 29.77 in NE 2.0 mph 4.0 mph 86% 0.00 in 0.00 W/m2
06:04 21.7 °F 18.2 °F 29.77 in NE 2.0 mph 2.0 mph 86% 0.00 in 0.00 W/m2
06:08 21.7 °F 18.2 °F 29.76 in SE 1.0 mph 2.0 mph 86% 0.00 in 0.00 W/m2
06:14 21.8 °F 18.3 °F 29.77 in ENE 2.0 mph 5.0 mph 86% 0.00 in 0.00 W/m2
06:18 21.7 °F 18.2 °F 29.77 in ENE 2.0 mph 6.0 mph 86% 0.00 in 0.00 W/m2
06:24 21.8 °F 18.0 °F 29.77 in ENE 2.0 mph 2.0 mph 85% 0.00 in 0.00 W/m2
06:28 21.8 °F 18.0 °F 29.76 in ENE 2.0 mph 5.0 mph 85% 0.00 in 0.00 W/m2
06:34 21.8 °F 18.0 °F 29.77 in ENE 2.0 mph 2.0 mph 85% 0.00 in 0.00 W/m2
06:38 21.8 °F 18.0 °F 29.77 in NE 1.0 mph 3.0 mph 85% 0.00 in 0.00 W/m2
06:44 21.9 °F 18.1 °F 29.77 in NE 1.0 mph 1.0 mph 85% 0.00 in 0.00 W/m2
06:48 21.9 °F 18.1 °F 29.77 in NE 1.0 mph 2.0 mph 85% 0.00 in 0.00 W/m2
06:54 21.8 °F 18.0 °F 29.77 in ENE 1.0 mph 3.0 mph 85% 0.00 in 0.00 W/m2
06:58 21.9 °F 18.1 °F 29.77 in ENE 1.0 mph 3.0 mph 85% 0.00 in 0.00 W/m2
07:04 21.9 °F 18.1 °F 29.77 in ENE 1.0 mph 3.0 mph 85% 0.00 in 0.00 W/m2
07:08 21.9 °F 18.1 °F 29.77 in ENE 2.0 mph 3.0 mph 85% 0.00 in 0.00 W/m2
07:14 21.9 °F 18.1 °F 29.77 in ENE 2.0 mph 2.0 mph 85% 0.00 in 0.00 W/m2
07:18 21.9 °F 18.1 °F 29.77 in ENE 2.0 mph 2.0 mph 85% 0.00 in 0.00 W/m2
07:24 21.9 °F 18.1 °F 29.78 in ENE 1.0 mph 2.0 mph 85% 0.00 in 0.00 W/m2
07:28 21.9 °F 18.1 °F 29.78 in ENE 1.0 mph 2.0 mph 85% 0.00 in 0.00 W/m2
07:34 22.0 °F 18.2 °F 29.78 in NE 1.0 mph 2.0 mph 85% 0.00 in 5.00 W/m2
07:38 22.1 °F 18.3 °F 29.79 in NNE 1.0 mph 3.0 mph 85% 0.00 in 5.00 W/m2
07:44 22.1 °F 18.3 °F 29.80 in NNE 2.0 mph 6.0 mph 85% 0.00 in 7.00 W/m2
07:48 22.1 °F 18.3 °F 29.80 in NE 2.0 mph 6.0 mph 85% 0.00 in 9.00 W/m2
07:54 22.1 °F 18.3 °F 29.80 in NNE 1.0 mph 3.0 mph 85% 0.00 in 11.00 W/m2
07:58 22.2 °F 18.4 °F 29.80 in NNE 2.0 mph 3.0 mph 85% 0.00 in 11.00 W/m2
08:04 22.3 °F 18.5 °F 29.80 in NNE 2.0 mph 3.0 mph 85% 0.00 in 12.00 W/m2
08:08 22.3 °F 18.5 °F 29.80 in NE 2.0 mph 3.0 mph 85% 0.00 in 14.00 W/m2
08:14 22.3 °F 18.5 °F 29.80 in North 2.0 mph 3.0 mph 85% 0.00 in 14.00 W/m2
08:18 22.3 °F 18.5 °F 29.80 in North 2.0 mph 3.0 mph 85% 0.00 in 28.00 W/m2
08:24 22.4 °F 18.8 °F 29.81 in North 1.0 mph 2.0 mph 86% 0.00 in 33.00 W/m2
08:28 22.5 °F 18.9 °F 29.81 in North 1.0 mph 2.0 mph 86% 0.00 in 35.00 W/m2
08:34 22.6 °F 19.0 °F 29.81 in Calm   1.0 mph 86% 0.00 in 30.00 W/m2
08:38 22.6 °F 19.0 °F 29.82 in Calm   1.0 mph 86% 0.00 in 32.00 W/m2
08:44 22.7 °F 19.1 °F 29.82 in Calm     86% 0.00 in 35.00 W/m2
08:48 22.7 °F 19.1 °F 29.82 in Calm     86% 0.00 in 35.00 W/m2
08:54 22.9 °F 19.3 °F 29.82 in Calm     86% 0.00 in 37.00 W/m2
08:58 22.9 °F 19.3 °F 29.83 in NNW 1.0 mph 2.0 mph 86% 0.00 in 32.00 W/m2
09:04 22.7 °F 19.1 °F 29.83 in NNW 1.0 mph 2.0 mph 86% 0.00 in 42.00 W/m2
09:08 22.4 °F 18.8 °F 29.83 in WNW 1.0 mph 2.0 mph 86% 0.00 in 56.00 W/m2
09:14 22.0 °F 18.5 °F 29.84 in NNW 2.0 mph 4.0 mph 86% 0.00 in 67.00 W/m2
09:18 21.8 °F 18.3 °F 29.84 in NNW 2.0 mph 4.0 mph 86% 0.00 in 79.00 W/m2
09:24 21.6 °F 18.1 °F 29.84 in NW 1.0 mph 2.0 mph 86% 0.00 in 72.00 W/m2
09:28 21.3 °F 17.8 °F 29.85 in WNW 1.0 mph 3.0 mph 86% 0.00 in 79.00 W/m2
09:34 20.9 °F 17.1 °F 29.85 in WNW 2.0 mph 4.0 mph 85% 0.00 in 91.00 W/m2
09:38 20.8 °F 17.0 °F 29.85 in WNW 2.0 mph 4.0 mph 85% 0.00 in 107.00 W/m2
09:44 20.7 °F 16.9 °F 29.85 in WNW 2.0 mph 3.0 mph 85% 0.00 in 107.00 W/m2
09:48 20.9 °F 17.1 °F 29.86 in WNW 1.0 mph 3.0 mph 85% 0.00 in 104.00 W/m2
09:54 21.0 °F 17.2 °F 29.86 in WNW 1.0 mph 3.0 mph 85% 0.00 in 118.00 W/m2
09:58 21.1 °F 17.3 °F 29.86 in WNW 2.0 mph 3.0 mph 85% 0.00 in 130.00 W/m2
10:04 21.2 °F 17.4 °F 29.86 in WNW 2.0 mph 2.0 mph 85% 0.00 in 137.00 W/m2
10:08 21.4 °F 17.6 °F 29.86 in WNW 1.0 mph 3.0 mph 85% 0.00 in 146.00 W/m2
10:14 21.7 °F 17.9 °F 29.87 in NW 1.0 mph 1.0 mph 85% 0.00 in 155.00 W/m2
10:18 21.9 °F 18.1 °F 29.88 in NW 1.0 mph 2.0 mph 85% 0.00 in 172.00 W/m2
10:24 22.3 °F 18.5 °F 29.88 in NW 1.0 mph 4.0 mph 85% 0.00 in 181.00 W/m2
10:28 22.4 °F 18.3 °F 29.88 in WNW 2.0 mph 4.0 mph 84% 0.00 in 197.00 W/m2
10:34 22.3 °F 17.9 °F 29.89 in WNW 3.0 mph 5.0 mph 83% 0.00 in 230.00 W/m2
10:38 22.5 °F 17.8 °F 29.89 in WNW 2.0 mph 5.0 mph 82% 0.00 in 221.00 W/m2
10:44 22.7 °F 18.0 °F 29.89 in NW 2.0 mph 3.0 mph 82% 0.00 in 190.00 W/m2
10:48 22.6 °F 17.9 °F 29.90 in West 3.0 mph 4.0 mph 82% 0.00 in 171.00 W/m2
10:54 22.4 °F 17.7 °F 29.91 in WNW 3.0 mph 4.0 mph 82% 0.00 in 141.00 W/m2
10:58 21.9 °F 17.2 °F 29.91 in West 4.0 mph 6.0 mph 82% 0.00 in 134.00 W/m2
11:04 21.4 °F 16.8 °F 29.92 in West 5.0 mph 7.0 mph 82% 0.00 in 127.00 W/m2
11:08 21.3 °F 16.7 °F 29.92 in WNW 4.0 mph 7.0 mph 82% 0.00 in 128.00 W/m2
11:14 21.0 °F 16.1 °F 29.93 in NW 4.0 mph 7.0 mph 81% 0.00 in 125.00 W/m2
11:18 20.8 °F 15.9 °F 29.93 in North 4.0 mph 10.0 mph 81% 0.00 in 134.00 W/m2
11:24 20.6 °F 15.7 °F 29.94 in West 4.0 mph 7.0 mph 81% 0.00 in 169.00 W/m2
11:28 20.4 °F 15.5 °F 29.94 in NW 4.0 mph 7.0 mph 81% 0.00 in 142.00 W/m2
11:34 20.1 °F 15.2 °F 29.94 in NNW 4.0 mph 4.0 mph 81% 0.00 in 141.00 W/m2
11:38 20.2 °F 15.3 °F 29.95 in NW 3.0 mph 4.0 mph 81% 0.00 in 155.00 W/m2
11:44 20.1 °F 14.9 °F 29.95 in NW 3.0 mph 3.0 mph 80% 0.00 in 146.00 W/m2
11:48 19.9 °F 14.7 °F 29.95 in NW 3.0 mph 4.0 mph 80% 0.00 in 142.00 W/m2
11:54 19.2 °F 14.0 °F 29.96 in WNW 4.0 mph 4.0 mph 80% 0.00 in 109.00 W/m2
11:58 18.9 °F 13.7 °F 29.96 in WNW 5.0 mph 5.0 mph 80% 0.00 in 141.00 W/m2
12:04 18.8 °F 13.7 °F 29.97 in WNW 4.0 mph 6.0 mph 80% 0.00 in 134.00 W/m2
12:08 18.8 °F 13.7 °F 29.97 in NW 5.0 mph 6.0 mph 80% 0.00 in 142.00 W/m2
12:14 18.9 °F 13.7 °F 29.97 in NW 5.0 mph 8.0 mph 80% 0.00 in 146.00 W/m2
12:18 19.0 °F 13.8 °F 29.97 in WNW 4.0 mph 8.0 mph 80% 0.00 in 167.00 W/m2
12:24 19.1 °F 13.9 °F 29.98 in WNW 4.0 mph 5.0 mph 80% 0.00 in 137.00 W/m2
12:28 19.0 °F 13.8 °F 29.99 in WNW 4.0 mph 5.0 mph 80% 0.00 in 169.00 W/m2
12:34 19.0 °F 13.8 °F 29.99 in WNW 5.0 mph 7.0 mph 80% 0.00 in 186.00 W/m2
12:38 19.1 °F 13.9 °F 29.99 in NW 4.0 mph 7.0 mph 80% 0.00 in 193.00 W/m2
12:44 19.3 °F 14.1 °F 29.99 in WNW 4.0 mph 7.0 mph 80% 0.00 in 246.00 W/m2
12:48 19.4 °F 13.9 °F 30.00 in NNW 4.0 mph 7.0 mph 79% 0.00 in 269.00 W/m2
12:54 19.5 °F 14.0 °F 30.00 in NW 5.0 mph 9.0 mph 79% 0.00 in 230.00 W/m2
12:58 19.7 °F 14.2 °F 30.00 in NW 5.0 mph 9.0 mph 79% 0.00 in 246.00 W/m2
13:04 19.9 °F 14.1 °F 30.00 in WNW 4.0 mph 4.0 mph 78% 0.00 in 251.00 W/m2
13:08 19.8 °F 14.0 °F 30.01 in NW 4.0 mph 9.0 mph 78% 0.00 in 197.00 W/m2
13:14 19.7 °F 14.2 °F 30.02 in WNW 4.0 mph 5.0 mph 79% 0.00 in 169.00 W/m2
13:18 19.9 °F 14.4 °F 30.01 in NW 4.0 mph 6.0 mph 79% 0.00 in 220.00 W/m2
13:24 19.9 °F 14.4 °F 30.02 in NW 3.0 mph 7.0 mph 79% 0.00 in 272.00 W/m2
13:28 19.8 °F 14.0 °F 30.02 in West 4.0 mph 9.0 mph 78% 0.00 in 207.00 W/m2
13:34 19.7 °F 14.2 °F 30.02 in NNW 4.0 mph 5.0 mph 79% 0.00 in 287.00 W/m2
13:38 20.0 °F 14.5 °F 30.03 in WNW 4.0 mph 6.0 mph 79% 0.00 in 274.00 W/m2
13:44 20.2 °F 14.7 °F 30.03 in NW 3.0 mph 4.0 mph 79% 0.00 in 287.00 W/m2
13:48 20.1 °F 14.3 °F 30.03 in NW 4.0 mph 7.0 mph 78% 0.00 in 323.00 W/m2
13:52 19.6 °F 13.6 °F 30.04 in NW 5.0 mph 7.0 mph 77% 0.00 in 295.00 W/m2
13:58 19.5 °F 13.8 °F 30.04 in WNW 6.0 mph 7.0 mph 78% 0.00 in 271.00 W/m2
14:04 19.3 °F 13.6 °F 30.05 in WNW 6.0 mph 11.0 mph 78% 0.00 in 318.00 W/m2
14:08 19.5 °F 13.8 °F 30.05 in WNW 5.0 mph 11.0 mph 78% 0.00 in 311.00 W/m2
14:14 20.5 °F 14.7 °F 30.05 in WNW 5.0 mph 7.0 mph 78% 0.00 in 489.00 W/m2
14:18 20.8 °F 14.7 °F 30.05 in NW 4.0 mph 7.0 mph 77% 0.00 in 341.00 W/m2
14:24 20.7 °F 14.6 °F 30.06 in NNW 5.0 mph 5.0 mph 77% 0.00 in 345.00 W/m2
14:28 20.5 °F 14.1 °F 30.07 in WNW 5.0 mph 5.0 mph 76% 0.00 in 279.00 W/m2
14:34 20.3 °F 14.2 °F 30.07 in NW 5.0 mph 9.0 mph 77% 0.00 in 559.00 W/m2
14:38 20.8 °F 14.4 °F 30.07 in NNW 5.0 mph 10.0 mph 76% 0.00 in 591.00 W/m2
14:44 21.0 °F 14.6 °F 30.08 in WNW 5.0 mph 6.0 mph 76% 0.00 in 295.00 W/m2
14:48 20.8 °F 14.4 °F 30.08 in NW 5.0 mph 6.0 mph 76% 0.00 in 295.00 W/m2
14:54 21.0 °F 14.6 °F 30.08 in WNW 4.0 mph 11.0 mph 76% 0.00 in 316.00 W/m2
14:58 20.7 °F 14.0 °F 30.09 in WNW 5.0 mph 11.0 mph 75% 0.00 in 302.00 W/m2
15:04 21.0 °F 14.6 °F 30.09 in NW 5.0 mph 5.0 mph 76% 0.00 in 221.00 W/m2
15:08 20.8 °F 13.8 °F 30.09 in NW 3.0 mph 5.0 mph 74% 0.00 in 197.00 W/m2
15:14 20.8 °F 13.8 °F 30.10 in NW 3.0 mph 3.0 mph 74% 0.00 in 225.00 W/m2
15:18 20.4 °F 13.1 °F 30.11 in NNW 4.0 mph 4.0 mph 73% 0.00 in 232.00 W/m2
15:24 20.6 °F 13.6 °F 30.11 in WNW 4.0 mph 4.0 mph 74% 0.00 in 179.00 W/m2
15:28 20.5 °F 13.5 °F 30.11 in NNW 3.0 mph 4.0 mph 74% 0.00 in 199.00 W/m2
15:34 20.4 °F 13.4 °F 30.11 in NW 4.0 mph 4.0 mph 74% 0.00 in 181.00 W/m2
15:38 20.5 °F 13.5 °F 30.11 in NNW 4.0 mph 6.0 mph 74% 0.00 in 139.00 W/m2
15:44 20.3 °F 12.7 °F 30.12 in NW 4.0 mph 6.0 mph 72% 0.00 in 155.00 W/m2
15:48 20.2 °F 12.6 °F 30.13 in NNW 5.0 mph 10.0 mph 72% 0.00 in 107.00 W/m2
15:54 19.9 °F 12.0 °F 30.13 in WNW 5.0 mph 8.0 mph 71% 0.00 in 114.00 W/m2
15:58 19.9 °F 12.0 °F 30.13 in NNW 5.0 mph 8.0 mph 71% 0.00 in 127.00 W/m2
16:04 20.1 °F 12.2 °F 30.14 in NNW 3.0 mph 5.0 mph 71% 0.00 in 120.00 W/m2
16:08 20.2 °F 12.3 °F 30.14 in NW 3.0 mph 7.0 mph 71% 0.00 in 107.00 W/m2
16:14 20.0 °F 12.1 °F 30.14 in NW 5.0 mph 9.0 mph 71% 0.00 in 95.00 W/m2
16:18 20.0 °F 12.1 °F 30.14 in NW 5.0 mph 9.0 mph 71% 0.00 in 95.00 W/m2
16:24 20.0 °F 12.1 °F 30.15 in WNW 3.0 mph 4.0 mph 71% 0.00 in 88.00 W/m2
16:28 19.9 °F 12.0 °F 30.15 in NNW 3.0 mph 5.0 mph 71% 0.00 in 83.00 W/m2
16:34 19.8 °F 11.9 °F 30.16 in WNW 3.0 mph 4.0 mph 71% 0.00 in 76.00 W/m2
16:38 19.8 °F 11.9 °F 30.16 in NW 3.0 mph 5.0 mph 71% 0.00 in 69.00 W/m2
16:44 19.7 °F 11.8 °F 30.16 in NNW 3.0 mph 4.0 mph 71% 0.00 in 65.00 W/m2
16:48 19.6 °F 11.7 °F 30.16 in NNW 3.0 mph 4.0 mph 71% 0.00 in 54.00 W/m2
16:54 19.6 °F 12.0 °F 30.17 in NNW 3.0 mph 3.0 mph 72% 0.00 in 44.00 W/m2
16:58 19.6 °F 12.0 °F 30.17 in NNW 2.0 mph 3.0 mph 72% 0.00 in 33.00 W/m2
17:04 19.5 °F 12.3 °F 30.17 in NNW 2.0 mph 3.0 mph 73% 0.00 in 25.00 W/m2
17:08 19.4 °F 12.5 °F 30.18 in NNW 1.0 mph 3.0 mph 74% 0.00 in 21.00 W/m2
17:14 19.4 °F 12.8 °F 30.18 in Calm   1.0 mph 75% 0.00 in 18.00 W/m2
17:18 19.4 °F 13.1 °F 30.19 in Calm   1.0 mph 76% 0.00 in 14.00 W/m2
17:24 19.4 °F 13.4 °F 30.19 in Calm   1.0 mph 77% 0.00 in 11.00 W/m2
17:28 19.4 °F 13.4 °F 30.19 in Calm   2.0 mph 77% 0.00 in 7.00 W/m2
17:34 19.2 °F 13.5 °F 30.20 in NNW 1.0 mph 1.0 mph 78% 0.00 in 5.00 W/m2
17:38 19.3 °F 13.6 °F 30.20 in NNW 1.0 mph 1.0 mph 78% 0.00 in 0.00 W/m2
17:44 19.2 °F 13.8 °F 30.20 in Calm     79% 0.00 in 0.00 W/m2
17:48 19.2 °F 14.0 °F 30.21 in Calm     80% 0.00 in 0.00 W/m2
17:54 19.2 °F 14.0 °F 30.21 in Calm     80% 0.00 in 0.00 W/m2
17:58 19.1 °F 14.2 °F 30.22 in Calm   2.0 mph 81% 0.00 in 0.00 W/m2
18:04 19.1 °F 14.2 °F 30.22 in NNW 1.0 mph 2.0 mph 81% 0.00 in 0.00 W/m2
18:08 19.2 °F 14.3 °F 30.23 in NNW 1.0 mph 2.0 mph 81% 0.00 in 0.00 W/m2
18:14 19.1 °F 14.2 °F 30.23 in NNW 1.0 mph 1.0 mph 81% 0.00 in 0.00 W/m2
18:18 19.2 °F 14.3 °F 30.24 in Calm   1.0 mph 81% 0.00 in 0.00 W/m2
18:24 19.2 °F 14.3 °F 30.24 in Calm   2.0 mph 81% 0.00 in 0.00 W/m2
18:28 19.2 °F 14.3 °F 30.24 in Calm   2.0 mph 81% 0.00 in 0.00 W/m2
18:34 19.2 °F 14.3 °F 30.24 in Calm     81% 0.00 in 0.00 W/m2
18:38 19.1 °F 14.5 °F 30.25 in Calm     82% 0.00 in 0.00 W/m2
18:44 19.1 °F 14.5 °F 30.25 in Calm   2.0 mph 82% 0.00 in 0.00 W/m2
18:48 19.0 °F 14.4 °F 30.25 in Calm   2.0 mph 82% 0.00 in 0.00 W/m2
18:54 19.1 °F 14.5 °F 30.26 in Calm     82% 0.00 in 0.00 W/m2
18:58 19.0 °F 14.4 °F 30.26 in Calm     82% 0.00 in 0.00 W/m2
19:04 18.9 °F 14.3 °F 30.27 in Calm     82% 0.00 in 0.00 W/m2
19:08 18.8 °F 14.2 °F 30.27 in Calm     82% 0.00 in 0.00 W/m2
19:14 18.6 °F 14.0 °F 30.27 in Calm     82% 0.00 in 0.00 W/m2
19:18 18.3 °F 13.7 °F 30.27 in Calm     82% 0.00 in 0.00 W/m2
19:24 18.1 °F 13.5 °F 30.27 in Calm     82% 0.00 in 0.00 W/m2
19:28 17.8 °F 13.2 °F 30.28 in Calm     82% 0.00 in 0.00 W/m2
19:34 17.6 °F 13.3 °F 30.28 in Calm     83% 0.00 in 0.00 W/m2
19:38 17.4 °F 13.1 °F 30.28 in Calm     83% 0.00 in 0.00 W/m2
19:44 17.3 °F 13.0 °F 30.28 in Calm     83% 0.00 in 0.00 W/m2
19:48 17.3 °F 13.3 °F 30.28 in Calm     84% 0.00 in 0.00 W/m2
19:54 17.2 °F 13.2 °F 30.28 in Calm     84% 0.00 in 0.00 W/m2
19:58 17.2 °F 13.2 °F 30.28 in Calm     84% 0.00 in 0.00 W/m2
20:04 17.2 °F 13.2 °F 30.29 in Calm     84% 0.00 in 0.00 W/m2
20:08 17.1 °F 13.1 °F 30.29 in Calm     84% 0.00 in 0.00 W/m2
20:14 16.9 °F 12.9 °F 30.30 in Calm     84% 0.00 in 0.00 W/m2
20:18 16.9 °F 13.2 °F 30.30 in Calm     85% 0.00 in 0.00 W/m2
20:24 16.9 °F 13.2 °F 30.30 in Calm     85% 0.00 in 0.00 W/m2
20:28 17.0 °F 13.3 °F 30.30 in Calm     85% 0.00 in 0.00 W/m2
20:34 17.2 °F 13.5 °F 30.30 in Calm     85% 0.00 in 0.00 W/m2
20:38 17.2 °F 13.5 °F 30.30 in Calm   2.0 mph 85% 0.00 in 0.00 W/m2
20:44 17.1 °F 13.4 °F 30.30 in Calm     85% 0.00 in 0.00 W/m2
20:48 17.1 °F 13.6 °F 30.31 in Calm     86% 0.00 in 0.00 W/m2
20:54 17.1 °F 13.6 °F 30.31 in Calm   2.0 mph 86% 0.00 in 0.00 W/m2
20:58 17.1 °F 13.6 °F 30.31 in Calm   2.0 mph 86% 0.00 in 0.00 W/m2
21:04 17.1 °F 13.6 °F 30.32 in Calm     86% 0.00 in 0.00 W/m2
21:08 17.1 °F 13.6 °F 30.32 in Calm   1.0 mph 86% 0.00 in 0.00 W/m2
21:14 17.3 °F 13.8 °F 30.32 in Calm     86% 0.00 in 0.00 W/m2
21:18 17.4 °F 14.2 °F 30.32 in Calm     87% 0.00 in 0.00 W/m2
21:24 17.7 °F 14.5 °F 30.32 in Calm   3.0 mph 87% 0.00 in 0.00 W/m2
21:28 18.0 °F 14.8 °F 30.33 in WSW 1.0 mph 3.0 mph 87% 0.00 in 0.00 W/m2
21:34 18.2 °F 15.0 °F 30.33 in WSW 1.0 mph 3.0 mph 87% 0.00 in 0.00 W/m2
21:38 18.5 °F 15.3 °F 30.33 in West 2.0 mph 3.0 mph 87% 0.00 in 0.00 W/m2
21:44 18.8 °F 15.6 °F 30.33 in WSW 2.0 mph 3.0 mph 87% 0.00 in 0.00 W/m2
21:48 18.7 °F 15.2 °F 30.33 in West 2.0 mph 3.0 mph 86% 0.00 in 0.00 W/m2
21:54 18.7 °F 15.2 °F 30.33 in WSW 3.0 mph 6.0 mph 86% 0.00 in 0.00 W/m2
21:58 18.6 °F 14.8 °F 30.33 in West 3.0 mph 6.0 mph 85% 0.00 in 0.00 W/m2
22:02 18.5 °F 14.7 °F 30.33 in West 3.0 mph 3.0 mph 85% 0.00 in 0.00 W/m2
22:08 18.3 °F 14.3 °F 30.34 in West 1.0 mph 4.0 mph 84% 0.00 in 0.00 W/m2
22:14 18.0 °F 14.0 °F 30.34 in WNW 1.0 mph 1.0 mph 84% 0.00 in 0.00 W/m2
22:18 17.9 °F 13.9 °F 30.34 in Calm   1.0 mph 84% 0.00 in 0.00 W/m2
22:24 18.0 °F 14.0 °F 30.34 in Calm   2.0 mph 84% 0.00 in 0.00 W/m2
Country Meadow, Clay, NY, USA
Compliments of Weather Underground - 2 mb